[[{"header":{"parameterUnit":"m.s-1","parameterCategory":1,"la1":30.2991,"la2":30.254,"lo1":-89.0895,"lo2":-89.0444,"dy":0.0017,"dx":0.0017,"nx":28,"ny":28,"refTime":"2025-02-08T03:00:00:Z","depth":0,"parameterNumber":2,"parameterNumberName":"U-component_of_WINDS"},"data":[0,0,0,0,0,0,0,0,0,0,0,0,0,0,0,0,0,0,0,0,0,0,0,0,0,0,0,0,0,0,0,0,0,0,0,0,0,0,0,0,0,0,0,0,0,0,0,0,0,0,0,0,0,0,0,0,0,0,-0.8568,-0.8568,0,-0.8571,-0.8571,-0.8571,-0.8541,-0.8541,-0.854,-0.8539,-0.8545,-0.8545,-0.8546,0,0,0,0,0,0,0,0,0,0,0,0,0,-0.854,-0.854,-0.8568,-0.8568,-0.8568,-0.8571,-0.8571,-0.8571,-0.8542,-0.8541,-0.854,-0.8539,-0.8544,-0.8545,-0.8546,0,0,0,0,0,0,0,0,0,0,0,0,0,-0.8548,-0.854,-0.8568,-0.8553,-0.8552,-0.857,-0.8571,-0.8571,-0.8542,-0.8541,-0.8539,-0.8538,-0.8544,-0.8545,-0.8547,-0.8579,0,0,-0.8551,-0.8551,0,0,0,0,0,0,0,0,-0.8548,-0.8549,-0.8555,-0.8554,-0.8553,-0.8554,-0.8563,-0.8574,-0.8542,-0.8546,-0.8539,-0.8538,-0.8549,-0.855,-0.8553,-0.858,-0.858,-0.8551,-0.8552,-0.8552,-0.8553,0,0,0,0,0,0,0,-0.8547,-0.8549,-0.8569,-0.8556,-0.8554,-0.8548,-0.8548,-0.8565,-0.8554,-0.8545,-0.8543,-0.8544,-0.8548,-0.8552,-0.8553,-0.858,-0.8551,-0.8552,-0.8553,-0.8553,-0.8634,-0.8635,0,0,0,0,0,0,-0.8548,-0.8549,-0.8569,-0.8569,-0.8547,-0.8549,-0.8549,-0.8555,-0.8554,-0.8553,-0.8545,-0.8542,-0.855,-0.8551,-0.8553,-0.8591,-0.8552,-0.8553,-0.8554,-0.8633,-0.8634,-0.8636,0,0,0,0,0,0,-0.8548,-0.855,-0.8569,-0.8558,-0.856,-0.8551,-0.8558,-0.8556,-0.856,-0.8554,-0.8552,-0.855,-0.8549,-0.8551,-0.8573,-0.8591,-0.8554,-0.8555,-0.8631,-0.8633,-0.8635,-0.8669,0,0,0,0,0,0,-0.8547,-0.855,-0.8562,-0.8559,-0.8561,-0.8588,-0.8559,-0.8557,-0.8562,-0.8559,-0.8558,-0.8557,-0.8548,-0.8571,-0.8574,-0.8592,-0.8556,-0.8629,-0.8632,-0.8634,-0.8666,-0.8672,-0.8676,0,0,0,0,0,-0.8546,-0.8572,-0.8562,-0.8565,-0.8575,-0.8589,-0.859,-0.8579,-0.8563,-0.8575,-0.8572,-0.8557,-0.8589,-0.8574,-0.8577,-0.8596,-0.8628,-0.8631,-0.8634,-0.8663,-0.867,-0.8676,0,0,0,0,0,0,-0.8578,-0.8571,-0.8561,-0.8586,-0.8588,-0.8584,-0.8598,-0.8586,-0.8593,-0.859,-0.8577,-0.8577,-0.8601,-0.8601,-0.8584,-0.8628,-0.8606,-0.861,-0.8627,-0.8634,-0.8639,-0.8638,-0.8557,0,0,0,0,0,-0.8588,-0.8599,-0.8592,-0.8615,-0.8617,-0.8608,-0.8613,-0.8604,-0.8606,-0.8607,-0.8605,-0.8608,-0.8619,-0.8626,-0.8636,-0.8666,-0.8666,-0.8681,-0.8686,-0.869,-0.8694,-0.871,-0.8717,-0.8646,-0.8646,-0.8646,0,0,-0.8608,-0.8606,-0.8614,-0.8621,-0.8622,-0.8634,-0.8608,-0.8623,-0.8632,-0.861,-0.863,-0.8629,-0.8631,-0.8657,-0.8669,-0.8658,-0.8713,-0.8694,-0.8698,-0.8699,-0.8714,-0.8721,-0.8727,-0.8648,-0.8647,-0.8647,0,0,-0.8652,-0.8651,-0.867,-0.8671,-0.8672,-0.8666,-0.8671,-0.8668,-0.8666,-0.8686,-0.867,-0.8682,-0.87,-0.8703,-0.8707,-0.8753,-0.874,-0.8756,-0.8784,-0.88,-0.8805,-0.881,-0.8827,-0.8833,-0.876,-0.876,-0.876,0,-0.8678,-0.8695,-0.8682,-0.8697,-0.8701,-0.8681,-0.8701,-0.8703,-0.8707,-0.8711,-0.8698,-0.8722,-0.8722,-0.8749,-0.876,-0.8764,-0.8769,-0.8756,-0.8805,-0.881,-0.8815,-0.883,-0.8836,-0.8762,-0.8761,-0.8761,-0.8761,0,-0.8727,-0.8739,-0.8754,-0.8758,-0.8764,-0.8782,-0.8772,-0.878,-0.8771,-0.8767,-0.8788,-0.8788,-0.8797,-0.8803,-0.8794,-0.8828,-0.8822,-0.8808,-0.8785,-0.8824,-0.8838,-0.8844,-0.8765,-0.8764,-0.8763,-0.8763,0,0,-0.879,-0.8787,-0.8793,-0.8794,-0.8794,-0.8804,-0.8821,-0.8829,-0.8837,-0.8841,-0.8855,-0.8872,-0.8859,-0.8863,-0.8855,-0.8869,-0.8906,-0.8853,-0.8853,-0.8863,-0.8944,-0.8954,-0.8961,-0.8897,-0.8898,-0.8899,-0.8944,0,-0.8833,-0.8861,-0.8849,-0.8879,-0.889,-0.8871,-0.8886,-0.8889,-0.8885,-0.8895,-0.8892,-0.8904,-0.8886,-0.8888,-0.8901,-0.8898,-0.8922,-0.8895,-0.8911,-0.8912,-0.8911,-0.8969,-0.898,-0.9022,-0.8949,-0.895,-0.8951,0,-0.8886,-0.8892,-0.8922,-0.892,-0.8924,-0.8938,-0.8945,-0.8954,-0.8957,-0.8953,-0.8959,-0.8948,-0.8965,-0.8943,-0.8968,-0.895,-0.8956,-0.8956,-0.8957,-0.8958,-0.8934,-0.8972,-0.9035,-0.9041,-0.896,-0.8959,-0.8958,0,-0.893,-0.8945,-0.8965,-0.8967,-0.8965,-0.8975,-0.8975,-0.8976,-0.8982,-0.8989,-0.8992,-0.9001,-0.9006,-0.9014,-0.9006,-0.8991,-0.9032,-0.9009,-0.903,-0.9031,-0.904,-0.9039,-0.9105,-0.9044,-0.9044,-0.9044,-0.9044,0,-0.8978,-0.8998,-0.8984,-0.8996,-0.9018,-0.9005,-0.9027,-0.9025,-0.9026,-0.9039,-0.9023,-0.9036,-0.9024,-0.9036,-0.903,-0.9051,-0.9054,-0.9052,-0.905,-0.9053,-0.9053,-0.9057,-0.9054,-0.9045,-0.9045,-0.9045,-0.9044,0,-0.9031,-0.9022,-0.9042,-0.9039,-0.9039,-0.9055,-0.9052,-0.9064,-0.906,-0.9075,-0.9079,-0.9072,-0.9085,-0.9077,-0.9091,-0.9087,-0.9115,-0.9109,-0.9114,-0.9112,-0.9133,-0.9131,-0.9203,-0.9212,-0.9146,-0.9146,-0.9147,0,-0.9062,-0.9076,-0.9074,-0.9081,-0.9082,-0.9093,-0.9098,-0.9087,-0.9094,-0.9098,-0.911,-0.9121,-0.9129,-0.9151,-0.9148,-0.9158,-0.9152,-0.9177,-0.9154,-0.9157,-0.9153,-0.9152,-0.9154,-0.9182,-0.9182,-0.9183,-0.9183,0,-0.9119,-0.9114,-0.9123,-0.913,-0.9137,-0.9142,-0.9146,-0.9153,-0.9142,-0.915,-0.9163,-0.9169,-0.9182,-0.9194,-0.9203,-0.9204,-0.9192,-0.9191,-0.9196,-0.9199,-0.9201,-0.9201,-0.9126,-0.9189,-0.9189,-0.9188,-0.9188,-0.9188,-0.9162,-0.9174,-0.9174,-0.9184,-0.9186,-0.919,-0.9201,-0.9198,-0.9207,-0.9217,-0.921,-0.9225,-0.9228,-0.9238,-0.9241,-0.9253,-0.9243,-0.9251,-0.9253,-0.9255,-0.9258,-0.92,-0.9255,-0.9254,-0.9254,-0.9254,-0.9254,0,-0.9218,-0.9218,-0.9227,-0.9233,-0.9241,-0.9228,-0.9232,-0.924,-0.9253,-0.9256,-0.9265,-0.9279,-0.929,-0.9288,-0.9299,-0.9309,-0.9304,-0.9312,-0.9311,-0.9312,-0.9266,-0.926,-0.9316,-0.9316,-0.9316,-0.9316,-0.9316,-0.9316,-0.9249,-0.9268,-0.9263,-0.9284,-0.9283,-0.9296,-0.93,-0.9304,-0.9307,-0.9323,-0.9332,-0.933,-0.9332,-0.9342,-0.9353,-0.9352,-0.9356,-0.9367,-0.9364,-0.9321,-0.9315,-0.9309,-0.9304,-0.9368,-0.9368,-0.9409,-0.9409,-0.9409]},{"header":{"parameterUnit":"m.s-1","parameterCategory":1,"la1":30.2991,"la2":30.254,"lo1":-89.0895,"lo2":-89.0444,"dy":0.0017,"dx":0.0017,"nx":28,"ny":28,"refTime":"2025-02-08T03:00:00:Z","depth":0,"parameterNumber":3,"parameterNumberName":"V-component_of_WINDS"},"data":[0,0,0,0,0,0,0,0,0,0,0,0,0,0,0,0,0,0,0,0,0,0,0,0,0,0,0,0,0,0,0,0,0,0,0,0,0,0,0,0,0,0,0,0,0,0,0,0,0,0,0,0,0,0,0,0,0,0,2.3075,2.3075,0,2.3045,2.3045,2.3045,2.3019,2.3019,2.3018,2.3018,2.2986,2.2985,2.2985,0,0,0,0,0,0,0,0,0,0,0,0,0,2.3109,2.3109,2.3075,2.3075,2.3074,2.3045,2.3045,2.3045,2.3019,2.3019,2.3018,2.3018,2.2986,2.2985,2.2985,0,0,0,0,0,0,0,0,0,0,0,0,0,2.3089,2.3109,2.3075,2.3058,2.3056,2.3045,2.3045,2.3044,2.3019,2.3019,2.3018,2.3018,2.2986,2.2985,2.2985,2.2987,0,0,2.2982,2.2981,0,0,0,0,0,0,0,0,2.309,2.3087,2.3061,2.3059,2.3057,2.3035,2.3045,2.3025,2.3019,2.3033,2.3018,2.3018,2.3003,2.3,2.2996,2.2986,2.2984,2.2982,2.2981,2.2981,2.2981,0,0,0,0,0,0,0,2.3091,2.3088,2.3063,2.3061,2.3059,2.3052,2.3048,2.3041,2.3021,2.3032,2.303,2.3027,2.3001,2.2997,2.2995,2.2984,2.2982,2.2981,2.298,2.298,2.2977,2.2977,0,0,0,0,0,0,2.3096,2.309,2.3064,2.3062,2.3073,2.3052,2.3048,2.3043,2.3021,2.3017,2.3027,2.3026,2.2998,2.2996,2.2993,2.2997,2.2981,2.298,2.2979,2.2976,2.2977,2.2977,0,0,0,0,0,0,2.3096,2.3093,2.3065,2.3076,2.3072,2.3052,2.3046,2.3043,2.3038,2.3017,2.3013,2.3026,2.2998,2.2995,2.299,2.2995,2.298,2.2979,2.2976,2.2977,2.2977,2.3002,0,0,0,0,0,0,2.3097,2.3094,2.3095,2.3076,2.3071,2.3062,2.3047,2.3042,2.3036,2.3034,2.3015,2.3011,2.2997,2.2991,2.2989,2.2994,2.2978,2.2975,2.2976,2.2977,2.3001,2.3004,2.3006,0,0,0,0,0,2.3099,2.3102,2.3095,2.3092,2.3072,2.3063,2.306,2.3044,2.3037,2.3038,2.3025,2.3012,2.2995,2.2991,2.2988,2.2993,2.2975,2.2976,2.2977,2.3,2.3003,2.3006,0,0,0,0,0,0,2.3122,2.3099,2.3091,2.3089,2.3078,2.3058,2.3059,2.3048,2.3039,2.3037,2.3017,2.3013,2.301,2.3001,2.2997,2.2995,2.2983,2.2984,2.3002,2.3005,2.3007,2.301,2.2977,0,0,0,0,0,2.3126,2.3121,2.3102,2.3102,2.3097,2.3079,2.3074,2.3063,2.3051,2.3046,2.3033,2.3021,2.3013,2.3008,2.2999,2.2999,2.2995,2.3001,2.3004,2.3006,2.3007,2.3008,2.301,2.2981,2.2981,2.2981,0,0,2.3136,2.3124,2.3121,2.3106,2.3096,2.3092,2.3075,2.307,2.3066,2.3045,2.304,2.303,2.3015,2.3013,2.3012,2.3005,2.3014,2.3007,2.3009,2.3009,2.3009,2.3012,2.3014,2.2981,2.2981,2.2981,0,0,2.3152,2.3141,2.3141,2.3132,2.3118,2.3106,2.3106,2.3088,2.3081,2.3076,2.306,2.3055,2.3042,2.3033,2.3026,2.304,2.3029,2.3038,2.3052,2.3053,2.3055,2.3057,2.3064,2.3066,2.3039,2.3039,2.3039,0,2.3166,2.3158,2.3142,2.3138,2.3133,2.3114,2.3114,2.3105,2.3089,2.3085,2.3078,2.3062,2.3051,2.3047,2.3051,2.3046,2.3046,2.304,2.3056,2.3058,2.306,2.3066,2.3068,2.304,2.304,2.304,2.304,0,2.3176,2.3171,2.3172,2.3159,2.3153,2.3151,2.3134,2.313,2.312,2.3109,2.3105,2.3091,2.308,2.3078,2.3067,2.3073,2.307,2.306,2.3048,2.3064,2.3069,2.3071,2.3042,2.3041,2.3041,2.3041,0,0,2.3205,2.3183,2.3184,2.3178,2.3162,2.3158,2.3155,2.3145,2.3143,2.3132,2.3131,2.312,2.3111,2.3104,2.3092,2.3093,2.3107,2.3083,2.3082,2.3089,2.3114,2.3123,2.3126,2.3099,2.3099,2.3099,2.3116,0,2.3219,2.3214,2.32,2.32,2.3195,2.3178,2.3176,2.3166,2.3156,2.3151,2.314,2.3133,2.3121,2.3117,2.3117,2.3105,2.3112,2.3104,2.3097,2.3097,2.3103,2.3128,2.3137,2.3153,2.3118,2.3118,2.3118,0,2.3234,2.3226,2.3226,2.3211,2.3209,2.3208,2.3198,2.3193,2.3182,2.3175,2.3168,2.3155,2.3152,2.3141,2.3137,2.3132,2.3128,2.3122,2.3122,2.3122,2.3109,2.3129,2.3157,2.316,2.3121,2.3121,2.312,0,2.3257,2.3246,2.3245,2.324,2.3223,2.3222,2.3215,2.3203,2.3199,2.319,2.3188,2.3179,2.3174,2.3168,2.3153,2.3146,2.3151,2.3138,2.3146,2.3147,2.3148,2.3149,2.3178,2.3145,2.3144,2.3144,2.3144,0,2.3274,2.3275,2.3255,2.3254,2.3255,2.3239,2.324,2.3231,2.3221,2.3218,2.3202,2.32,2.3181,2.3176,2.3165,2.3164,2.3162,2.3156,2.3154,2.3158,2.3159,2.3157,2.3155,2.3145,2.3145,2.3145,2.3145,0,2.33,2.3286,2.3284,2.3269,2.3265,2.3266,2.3252,2.3251,2.3241,2.3238,2.3236,2.322,2.3214,2.3199,2.3189,2.3182,2.3185,2.3178,2.3189,2.3187,2.3196,2.3196,2.3225,2.3229,2.3193,2.3193,2.3193,0,2.3313,2.3313,2.3298,2.3295,2.3289,2.3285,2.3281,2.3265,2.3262,2.325,2.325,2.3244,2.3238,2.323,2.3217,2.3209,2.3204,2.3214,2.3203,2.3208,2.3206,2.3206,2.3207,2.3217,2.3218,2.3218,2.3219,0,2.3337,2.333,2.3325,2.3318,2.3314,2.3308,2.33,2.3299,2.3282,2.3278,2.3273,2.3269,2.3259,2.3253,2.3245,2.3237,2.3225,2.3222,2.3224,2.323,2.3236,2.3234,2.3197,2.3222,2.3222,2.3221,2.3221,2.3221,2.3357,2.3357,2.3347,2.3342,2.3335,2.3329,2.3328,2.3318,2.3314,2.3306,2.3296,2.3293,2.3282,2.3269,2.3263,2.326,2.3253,2.3255,2.3256,2.3257,2.326,2.3236,2.3258,2.3258,2.3257,2.3257,2.3257,0,2.3381,2.3374,2.337,2.3361,2.3358,2.3348,2.3339,2.3337,2.3334,2.3326,2.3321,2.3316,2.331,2.3297,2.3291,2.3291,2.3286,2.329,2.329,2.3289,2.3265,2.3265,2.3295,2.3295,2.3295,2.3294,2.3294,2.3294,2.3394,2.3394,2.3387,2.3384,2.3377,2.3374,2.337,2.3365,2.3358,2.3353,2.3349,2.3341,2.3331,2.3324,2.3319,2.3315,2.3314,2.3321,2.3316,2.3294,2.329,2.3287,2.3287,2.332,2.332,2.334,2.334,2.334]}]]